Location: Berkeley
(37.8716°N, 122.2727°W)
Time: 22:45:05
(UTC-07:00)

A-11 Canister half - All Passes

Search period start: 07 June 2026 00:00
Search period end: 17 June 2026 00:00
Orbit: 1515 x 1685 km, 47.2° (Epoch: 7 June)

Date Brightness Start Highest point End Pass type
(mag) Time Alt. Az. Time Alt. Az. Time Alt. Az.
7 Jun - 00:17:11 10° WNW 00:24:59 31° SW 00:32:42 10° S visible
7 Jun - 13:29:38 10° SSE 13:36:23 20° SE 13:43:01 10° E daylight
7 Jun - 15:30:13 10° SW 15:40:12 70° SE 15:49:52 10° ENE daylight
7 Jun - 17:35:47 10° W 17:45:34 58° NNW 17:55:01 10° ENE daylight
7 Jun - 19:42:36 10° WNW 19:52:01 50° N 20:01:06 10° E daylight
7 Jun - 21:48:15 10° WNW 21:57:52 85° NNE 22:07:11 10° ESE visible
7 Jun - 23:53:59 10° WNW 00:02:01 33° SW 00:09:57 10° S visible
8 Jun - 13:07:06 10° SSE 13:13:25 19° SE 13:19:38 10° E daylight
8 Jun - 15:07:12 10° SW 15:17:09 66° SE 15:26:49 10° ENE daylight
8 Jun - 17:12:36 10° W 17:22:26 60° NNW 17:31:56 10° ENE daylight
8 Jun - 19:19:27 10° WNW 19:28:53 50° N 19:37:59 10° E daylight
8 Jun - 21:25:10 10° WNW 21:34:49 81° NNE 21:44:08 10° ESE visible
8 Jun - 23:30:49 10° WNW 23:39:04 36° SW 23:47:12 10° SSE visible
9 Jun - 12:44:38 10° SSE 12:50:27 17° ESE 12:56:11 10° E daylight
9 Jun - 14:44:12 10° SW 14:54:06 63° SE 15:03:44 10° ENE daylight
9 Jun - 16:49:25 10° W 16:59:18 61° NNW 17:08:52 10° ENE daylight
9 Jun - 18:56:17 10° WNW 19:05:44 49° N 19:14:51 10° ENE daylight
9 Jun - 21:02:04 10° WNW 21:11:45 78° NNE 21:21:06 10° ESE visible
9 Jun - 23:07:38 10° WNW 23:16:07 39° SW 23:24:24 10° SSE visible
10 Jun - 12:22:16 10° SSE 12:27:29 15° ESE 12:32:39 10° E daylight
10 Jun - 14:21:13 10° SW 14:31:04 59° SE 14:40:40 10° ENE daylight
10 Jun - 16:26:15 10° WSW 16:36:11 63° NNW 16:45:49 10° ENE daylight
10 Jun - 18:33:06 10° WNW 18:42:35 49° N 18:51:44 10° ENE daylight
10 Jun - 20:38:59 10° WNW 20:48:41 75° NNE 20:58:01 10° ESE daylight
10 Jun - 22:44:29 10° WNW 22:53:08 42° SW 23:01:36 10° SSE visible
11 Jun - 12:00:02 10° SSE 12:04:32 14° ESE 12:08:59 10° E daylight
11 Jun - 13:58:15 10° SSW 14:08:02 56° SE 14:17:35 10° ENE daylight
11 Jun - 16:03:04 10° WSW 16:13:04 66° NNW 16:22:45 10° ENE daylight
11 Jun - 18:09:55 10° WNW 18:19:26 49° N 18:28:36 10° ENE daylight
11 Jun - 20:15:54 10° WNW 20:25:36 72° NNE 20:34:57 10° ESE daylight
11 Jun - 22:21:21 10° WNW 22:30:10 45° SW 22:38:46 10° SSE visible
12 Jun - 11:38:01 10° SE 11:41:34 12° ESE 11:45:06 10° E daylight
12 Jun - 13:35:18 10° SSW 13:45:00 53° SE 13:54:29 10° ENE daylight
12 Jun - 15:39:54 10° WSW 15:49:56 68° NNW 15:59:42 10° ENE daylight
12 Jun - 17:46:45 10° WNW 17:56:17 49° N 18:05:29 10° ENE daylight
12 Jun - 19:52:47 10° WNW 20:02:32 70° NNE 20:11:53 10° ESE daylight
12 Jun - 21:58:13 10° WNW 22:07:11 48° SW 22:15:55 10° SSE visible
13 Jun - 11:16:28 10° SE 11:18:37 11° ESE 11:20:46 10° ESE daylight
13 Jun - 13:12:21 10° SSW 13:21:58 50° SE 13:31:23 10° ENE daylight
13 Jun - 15:16:45 10° WSW 15:26:50 70° NNW 15:36:38 10° ENE daylight
13 Jun - 17:23:33 10° WNW 17:33:08 49° N 17:42:22 10° ENE daylight
13 Jun - 19:29:41 10° WNW 19:39:26 67° NNE 19:48:47 10° ESE daylight
13 Jun - 21:35:05 10° WNW 21:44:12 51° SW 21:53:03 10° SSE visible
13 Jun - 23:45:47 10° WSW 23:47:20 10° WSW 23:48:54 10° SW visible
14 Jun - 12:49:27 10° SSW 12:58:56 47° SE 13:08:15 10° ENE daylight
14 Jun - 14:53:36 10° WSW 15:03:43 73° NNW 15:13:35 10° ENE daylight
14 Jun - 17:00:22 10° WNW 17:09:58 49° N 17:19:15 10° ENE daylight
14 Jun - 19:06:34 10° WNW 19:16:20 65° NNE 19:25:42 10° ESE daylight
14 Jun - 21:11:57 10° WNW 21:21:13 54° SW 21:30:10 10° SSE visible
14 Jun - 23:21:17 10° W 23:24:25 12° WSW 23:27:33 10° SW visible
15 Jun - 12:26:33 10° SSW 12:35:55 44° SE 12:45:08 10° ENE daylight
15 Jun - 14:30:27 10° WSW 14:40:37 76° NNW 14:50:31 10° ENE daylight
15 Jun - 16:37:09 10° WNW 16:46:48 49° N 16:56:08 10° ENE daylight
15 Jun - 18:43:28 10° WNW 18:53:13 63° NNE 19:02:36 10° ESE daylight
15 Jun - 20:48:50 10° WNW 20:58:13 58° SW 21:07:16 10° SSE visible
15 Jun - 22:57:23 10° W 23:01:30 14° WSW 23:05:36 10° SSW visible
16 Jun - 12:03:40 10° SSW 12:12:54 41° SE 12:22:00 10° ENE daylight
16 Jun - 14:07:19 10° WSW 14:17:30 79° NNW 14:27:27 10° ENE daylight
16 Jun - 16:13:58 10° W 16:23:39 50° N 16:33:01 10° ENE daylight
16 Jun - 18:20:20 10° WNW 18:30:07 61° NNE 18:39:30 10° E daylight
16 Jun - 20:25:44 10° WNW 20:35:12 62° SW 20:44:21 10° SE daylight
16 Jun - 22:33:42 10° W 22:38:35 15° WSW 22:43:24 10° SSW visible
